Location: Leuk
(46.3174°N, 7.6341°E)
Time: 16:04:35
(UTC+00:00)

PSLV R/B - Pass Details

Date: 09 March 2021
Orbit: 594 x 628 km, 98.0° (Epoch: 17 April)

Event Time Altitude Azimuth Distance (km) Brightness Sun altitude
Rises 04:09:16 0° 8° (N) 2,926 7.3 -18.7°
Reaches altitude 10° 04:11:31 10° 3° (N) 2,016 6.4 -18.4°
Maximum altitude 04:15:44 48° 289° (WNW) 826 3.8 -17.7°
Enters shadow 04:17:22 32° 236° (SW) 1,084 4.3 -17.4°
